| time (UTC) | temp C | wind direction | speed KPH | gust KPH | rain 1hr cm | rain 24hr cm | rain mn cm | humidity % | barometer mb |
| 20260902185007 | 14 | 222 | 17.7 | 20.9 | 0.00 | 0.00 | 0.00 | 7 | 999.3 |
| 20260902183007 | 15 | 222 | 17.7 | 22.5 | 0.00 | 0.00 | 0.00 | 6 | 999.1 |
| 20260902182007 | 15 | 222 | 17.7 | 25.7 | 0.00 | 0.00 | 0.00 | 6 | 999.1 |
| 20260902181007 | 16 | 221 | 17.7 | 24.1 | 0.00 | 0.00 | 0.00 | 6 | 999.1 |
| 20260902180008 | 16 | 222 | 17.7 | 22.5 | 0.00 | 0.00 | 0.00 | 6 | 999.1 |
| 20260902175007 | 17 | 223 | 17.7 | 22.5 | 0.00 | 0.00 | 0.00 | 6 | 999.0 |
| 20260902174007 | 17 | 224 | 17.7 | 22.5 | 0.00 | 0.00 | 0.00 | 6 | 998.9 |
| 20260902173006 | 17 | 222 | 17.7 | 22.5 | 0.00 | 0.00 | 0.00 | 6 | 998.9 |
| 20260902172006 | 17 | 224 | 17.7 | 27.4 | 0.00 | 0.00 | 0.00 | 6 | 998.8 |
| 20260902171006 | 18 | 225 | 17.7 | 22.5 | 0.00 | 0.00 | 0.00 | 6 | 998.8 |
| 20260902170006 | 18 | 224 | 19.3 | 25.7 | 0.00 | 0.00 | 0.00 | 6 | 998.8 |
| 20260902165006 | 18 | 223 | 17.7 | 29.0 | 0.00 | 0.00 | 0.00 | 6 | 998.8 |
| 20260902164006 | 19 | 225 | 17.7 | 29.0 | 0.00 | 0.00 | 0.00 | 6 | 998.7 |
| 20260902163006 | 19 | 224 | 19.3 | 25.7 | 0.00 | 0.00 | 0.00 | 6 | 998.6 |
| 20260902162006 | 20 | 220 | 20.9 | 29.0 | 0.00 | 0.00 | 0.00 | 6 | 998.6 |
| 20260902161006 | 20 | 221 | 22.5 | 30.6 | 0.00 | 0.00 | 0.00 | 6 | 998.6 |
| 20260902160009 | 20 | 225 | 19.3 | 29.0 | 0.00 | 0.00 | 0.00 | 6 | 998.6 |
| 20260902155006 | 20 | 225 | 19.3 | 35.4 | 0.00 | 0.00 | 0.00 | 6 | 998.6 |
| 20260902154006 | 20 | 219 | 19.3 | 29.0 | 0.00 | 0.00 | 0.00 | 6 | 998.6 |
| 20260902153006 | 20 | 219 | 22.5 | 32.2 | 0.00 | 0.00 | 0.00 | 6 | 998.6 |
| 20260902152006 | 20 | 219 | 20.9 | 30.6 | 0.00 | 0.00 | 0.00 | 6 | 998.6 |
| 20260902151006 | 20 | 218 | 20.9 | 33.8 | 0.00 | 0.00 | 0.00 | 7 | 998.7 |
| 20260902150006 | 20 | 217 | 19.3 | 27.4 | 0.00 | 0.00 | 0.00 | 7 | 998.7 |
| 20260902145006 | 21 | 220 | 22.5 | 29.0 | 0.00 | 0.00 | 0.00 | 7 | 998.8 |
| 20260902144007 | 21 | 220 | 20.9 | 25.7 | 0.00 | 0.00 | 0.00 | 7 | 998.8 |
| 20260902143006 | 21 | 218 | 22.5 | 32.2 | 0.00 | 0.00 | 0.00 | 7 | 998.8 |
| 20260902142006 | 20 | 217 | 20.9 | 29.0 | 0.00 | 0.00 | 0.00 | 7 | 999.0 |
| 20260902141006 | 20 | 221 | 17.7 | 25.7 | 0.00 | 0.00 | 0.00 | 7 | 999.1 |
| 20260902140006 | 20 | 219 | 20.9 | 29.0 | 0.00 | 0.00 | 0.00 | 7 | 999.3 |
| 20260902135006 | 21 | 218 | 20.9 | 29.0 | 0.00 | 0.00 | 0.00 | 7 | 999.3 |
| 20260902134006 | 21 | 217 | 20.9 | 30.6 | 0.00 | 0.00 | 0.00 | 7 | 999.5 |
| 20260902133006 | 21 | 218 | 20.9 | 33.8 | 0.00 | 0.00 | 0.00 | 6 | 999.5 |
| 20260902132006 | 22 | 217 | 22.5 | 29.0 | 0.00 | 0.00 | 0.00 | 6 | 999.4 |
| 20260902131006 | 22 | 221 | 19.3 | 29.0 | 0.00 | 0.00 | 0.00 | 6 | 999.3 |
| 20260902130006 | 22 | 221 | 17.7 | 25.7 | 0.00 | 0.00 | 0.00 | 6 | 999.4 |
| 20260902125006 | 22 | 224 | 19.3 | 27.4 | 0.00 | 0.00 | 0.00 | 6 | 999.4 |
| 20260902124006 | 22 | 229 | 19.3 | 29.0 | 0.00 | 0.00 | 0.00 | 6 | 999.5 |
| 20260902123006 | 22 | 220 | 20.9 | 27.4 | 0.00 | 0.00 | 0.00 | 6 | 999.6 |
| 20260902122006 | 22 | 228 | 20.9 | 29.0 | 0.00 | 0.00 | 0.00 | 6 | 999.8 |
| 20260902121006 | 22 | 224 | 20.9 | 35.4 | 0.00 | 0.00 | 0.00 | 6 | 999.8 |
| 20260902120006 | 21 | 233 | 17.7 | 22.5 | 0.00 | 0.00 | 0.00 | 6 | 999.9 |
| 20260902115006 | 21 | 231 | 22.5 | 33.8 | 0.00 | 0.00 | 0.00 | 6 | 1000.0 |
| 20260902114006 | 21 | 222 | 20.9 | 30.6 | 0.00 | 0.00 | 0.00 | 7 | 1000.0 |
| 20260902113006 | 21 | 218 | 22.5 | 32.2 | 0.00 | 0.00 | 0.00 | 7 | 1000.0 |
| 20260902112007 | 21 | 222 | 20.9 | 38.6 | 0.00 | 0.00 | 0.00 | 7 | 1000.1 |
| 20260902111007 | 21 | 223 | 19.3 | 29.0 | 0.00 | 0.00 | 0.00 | 7 | 1000.1 |
| 20260902110008 | 21 | 219 | 20.9 | 33.8 | 0.00 | 0.00 | 0.00 | 7 | 1000.1 |
| 20260902105007 | 20 | 226 | 20.9 | 25.7 | 0.00 | 0.00 | 0.00 | 7 | 1000.2 |
| 20260902104007 | 20 | 220 | 20.9 | 29.0 | 0.00 | 0.00 | 0.00 | 7 | 1000.2 |
| 20260902103007 | 19 | 226 | 19.3 | 25.7 | 0.00 | 0.00 | 0.00 | 7 | 1000.3 |
| 20260902102007 | 18 | 232 | 17.7 | 29.0 | 0.00 | 0.00 | 0.00 | 7 | 1000.4 |
| 20260902101007 | 18 | 225 | 19.3 | 25.7 | 0.00 | 0.00 | 0.00 | 7 | 1000.5 |
| 20260902100007 | 18 | 224 | 17.7 | 22.5 | 0.00 | 0.00 | 0.00 | 8 | 1000.5 |
| 20260902095007 | 18 | 229 | 19.3 | 29.0 | 0.00 | 0.00 | 0.00 | 7 | 1000.6 |
| 20260902094006 | 18 | 231 | 19.3 | 24.1 | 0.00 | 0.00 | 0.00 | 7 | 1000.6 |
| 20260902093006 | 18 | 226 | 17.7 | 25.7 | 0.00 | 0.00 | 0.00 | 7 | 1000.6 |
| 20260902092006 | 18 | 234 | 20.9 | 30.6 | 0.00 | 0.00 | 0.00 | 7 | 1000.6 |
| 20260902091006 | 18 | 230 | 20.9 | 35.4 | 0.00 | 0.00 | 0.00 | 8 | 1000.5 |
| 20260902090006 | 18 | 232 | 20.9 | 30.6 | 0.00 | 0.00 | 0.00 | 8 | 1000.4 |
| 20260902085006 | 18 | 230 | 19.3 | 25.7 | 0.00 | 0.00 | 0.00 | 8 | 1000.4 |
| 20260902084006 | 17 | 221 | 20.9 | 30.6 | 0.00 | 0.00 | 0.00 | 8 | 1000.5 |
| 20260902083006 | 17 | 221 | 20.9 | 29.0 | 0.00 | 0.00 | 0.00 | 8 | 1000.5 |
| 20260902082006 | 17 | 225 | 19.3 | 25.7 | 0.00 | 0.00 | 0.00 | 9 | 1000.5 |
| 20260902081006 | 16 | 230 | 19.3 | 25.7 | 0.00 | 0.00 | 0.00 | 9 | 1000.5 |
| 20260902080006 | 15 | 232 | 17.7 | 27.4 | 0.00 | 0.00 | 0.00 | 9 | 1000.5 |
| 20260902075006 | 15 | 234 | 17.7 | 22.5 | 0.00 | 0.00 | 0.00 | 9 | 1000.6 |
| 20260902074006 | 15 | 236 | 17.7 | 22.5 | 0.00 | 0.00 | 0.00 | 9 | 1000.7 |
| 20260902073006 | 14 | 229 | 17.7 | 29.0 | 0.00 | 0.00 | 0.00 | 9 | 1000.7 |
| 20260902072006 | 13 | 230 | 16.1 | 22.5 | 0.00 | 0.00 | 0.00 | 9 | 1000.6 |
| 20260902071006 | 12 | 233 | 16.1 | 20.9 | 0.00 | 0.00 | 0.00 | 9 | 1000.7 |
| 20260902070007 | 12 | 224 | 16.1 | 20.9 | 0.00 | 0.00 | 0.00 | 9 | 1000.6 |
| 20260902065006 | 12 | 222 | 16.1 | 22.5 | 0.00 | 0.00 | 0.00 | 9 | 1000.6 |
| 20260902064006 | 12 | 222 | 16.1 | 20.9 | 0.00 | 0.00 | 0.00 | 9 | 1000.7 |
| 20260902063006 | 11 | 222 | 14.5 | 20.9 | 0.00 | 0.00 | 0.00 | 9 | 1000.8 |
| 20260902062006 | 11 | 226 | 14.5 | 17.7 | 0.00 | 0.00 | 0.00 | 9 | 1000.8 |
| 20260902061006 | 11 | 227 | 14.5 | 20.9 | 0.00 | 0.00 | 0.00 | 9 | 1000.9 |
| 20260902060006 | 11 | 225 | 14.5 | 19.3 | 0.00 | 0.00 | 0.00 | 9 | 1000.8 |
| 20260902055006 | 10 | 227 | 14.5 | 19.3 | 0.00 | 0.00 | 0.00 | 9 | 1000.8 |
| 20260902054006 | 10 | 223 | 14.5 | 20.9 | 0.00 | 0.00 | 0.00 | 9 | 1000.8 |
| 20260902053006 | 10 | 220 | 16.1 | 22.5 | 0.00 | 0.00 | 0.00 | 9 | 1000.8 |
| 20260902052006 | 10 | 223 | 14.5 | 20.9 | 0.00 | 0.00 | 0.00 | 9 | 1000.7 |
| 20260902051006 | 10 | 223 | 19.3 | 25.7 | 0.00 | 0.00 | 0.00 | 9 | 1000.8 |
| 20260902050008 | 9 | 222 | 22.5 | 30.6 | 0.00 | 0.00 | 0.00 | 9 | 1000.8 |
| 20260902045006 | 9 | 224 | 20.9 | 29.0 | 0.00 | 0.00 | 0.00 | 9 | 1000.8 |
| 20260902044006 | 9 | 224 | 20.9 | 29.0 | 0.00 | 0.00 | 0.00 | 9 | 1000.8 |
| 20260902043006 | 8 | 225 | 19.3 | 25.7 | 0.00 | 0.00 | 0.00 | 9 | 1000.8 |
| 20260902042007 | 8 | 224 | 16.1 | 20.9 | 0.00 | 0.00 | 0.00 | 9 | 1000.9 |
| 20260902041007 | 8 | 225 | 14.5 | 20.9 | 0.00 | 0.00 | 0.00 | 9 | 1000.8 |
| 20260902040007 | 8 | 225 | 14.5 | 19.3 | 0.00 | 0.00 | 0.00 | 9 | 1000.9 |
| 20260902035007 | 8 | 226 | 14.5 | 19.3 | 0.00 | 0.00 | 0.00 | 9 | 1001.0 |
| 20260902034007 | 9 | 226 | 14.5 | 17.7 | 0.00 | 0.00 | 0.00 | 9 | 1001.0 |
| 20260902033007 | 9 | 225 | 14.5 | 17.7 | 0.00 | 0.00 | 0.00 | 9 | 1001.1 |
| 20260902032007 | 9 | 225 | 12.9 | 17.7 | 0.00 | 0.00 | 0.00 | 9 | 1001.1 |
| 20260902031007 | 9 | 225 | 12.9 | 17.7 | 0.00 | 0.00 | 0.00 | 9 | 1001.2 |
| 20260902030006 | 9 | 224 | 14.5 | 17.7 | 0.00 | 0.00 | 0.00 | 9 | 1001.3 |
| 20260902025006 | 9 | 226 | 12.9 | 17.7 | 0.00 | 0.00 | 0.00 | 9 | 1001.2 |
| 20260902024006 | 9 | 227 | 12.9 | 16.1 | 0.00 | 0.00 | 0.00 | 9 | 1001.3 |
| 20260902023006 | 9 | 226 | 12.9 | 16.1 | 0.00 | 0.00 | 0.00 | 9 | 1001.4 |
| 20260902022006 | 9 | 225 | 14.5 | 22.5 | 0.00 | 0.00 | 0.00 | 9 | 1001.4 |
| 20260902021006 | 9 | 226 | 14.5 | 17.7 | 0.00 | 0.00 | 0.00 | 9 | 1001.4 |
| 20260902020006 | 10 | 225 | 14.5 | 17.7 | 0.00 | 0.00 | 0.00 | 9 | 1001.4 |
| 20260902015006 | 10 | 227 | 12.9 | 14.5 | 0.00 | 0.00 | 0.00 | 9 | 1001.3 |
| 20260902014006 | 10 | 226 | 14.5 | 19.3 | 0.00 | 0.00 | 0.00 | 9 | 1001.5 |
| 20260902013006 | 10 | 226 | 12.9 | 17.7 | 0.00 | 0.00 | 0.00 | 9 | 1001.5 |
| 20260902012006 | 10 | 226 | 14.5 | 17.7 | 0.00 | 0.00 | 0.00 | 9 | 1001.5 |
| 20260902011006 | 10 | 226 | 14.5 | 17.7 | 0.00 | 0.00 | 0.00 | 8 | 1001.5 |
| 20260902010006 | 10 | 226 | 14.5 | 17.7 | 0.00 | 0.00 | 0.00 | 8 | 1001.5 |
| 20260902005006 | 10 | 225 | 14.5 | 19.3 | 0.00 | 0.00 | 0.00 | 8 | 1001.5 |
| 20260902004006 | 10 | 225 | 14.5 | 19.3 | 0.00 | 0.00 | 0.00 | 8 | 1001.5 |
| 20260902003006 | 10 | 226 | 14.5 | 20.9 | 0.00 | 0.00 | 0.00 | 8 | 1001.6 |
| 20260902002006 | 10 | 226 | 14.5 | 17.7 | 0.00 | 0.00 | 0.00 | 8 | 1001.6 |
| 20260902001006 | 10 | 227 | 14.5 | 17.7 | 0.00 | 0.00 | 0.00 | 8 | 1001.7 |
| 20260902000006 | 10 | 227 | 14.5 | 17.7 | 0.00 | 0.00 | 0.00 | 8 | 1001.8 |